Find Insat 2E

NORAD ID: 25666 Int'l Des: 1999-016 Owner: ISRO Country: IN operational
HEOCIRCULAR

リアルタイム位置

3D地球を読み込み中...

Insat 2Eについて

説明を読み込み中...

次回通過

Passes for default location (London). Set your location on the main map for personalized predictions.

高度履歴

Loading altitude history...

軌道要素

1 25666U 99016A 26105.62128133 -.00000263 00000-0 00000+0 0 9991
2 25666 11.2334 40.8305 0010514 297.4328 243.3138 0.99662522 50816
Epoch: Apr 15, 2026 • Age: 21 hours

現在のステータス

高度 36000.5 km
速度 3.07 km/s
衛星直下点 8.43°N, 152.76°E
打ち上げ日 Apr 2, 1999
運用期間 27 years
タイプ other

技術仕様

分類 Payload
質量 2550.00 kg
乾燥質量 1146.00 kg
総質量 2550.00 kg
長さ 2.30 m
直径 1.90 m
スパン 24.70 m
形状 Box + Pan + Ant
製造者 ISRO
バスタイプ I2K
フェーズステータス In Orbit
所有者/国 ISRO/IN

Most Searched